Bedford, MA

7:43 AM EDT on September 20, 2017 (GMT -0400)
Hanscom

Weather History for KBED - April, 2013

Change the Weather History Date:

Thursday, April 11, 2013

  Actual Average Record
Temperature  
Mean Temperature 48 °F -  
Max Temperature 54 °F 53 °F 88 °F (2017)
Min Temperature 41 °F 32 °F 22 °F (1960)
Degree Days  
Heating Degree Days 18    
Moisture  
Dew Point 39 °F    
Average Humidity 79    
Maximum Humidity 100    
Minimum Humidity 39    
Precipitation  
Precipitation 0.07 in - - ()
Sea Level Pressure  
Sea Level Pressure 29.99 in    
Wind  
Wind Speed 6 mph (North)    
Max Wind Speed 12 mph    
Max Gust Speed -    
Visibility 6 miles    
Events Rain    
Averages and records for this station are not official NWS values.
T = Trace of Precipitation, MM = Missing Value Source: NWS Daily Summary

Daily Weather History Graph

Daily Weather History Graph

Search for Another Location

Airport or City:

Trip Planner

Search our weather history database for the weather conditions in past years. The results will help you decide how hot, cold, wet, or windy it might be!

Date:

Astronomy

Apr. 11, 2013 Rise Set
Actual Time 6:10 AM EDT 7:22 PM EDT
Civil Twilight 5:41 AM EDT 7:51 PM EDT
Nautical Twilight 5:06 AM EDT 8:26 PM EDT
Astronomical Twilight 4:30 AM EDT 9:03 PM EDT
Moon 6:38 AM EDT (4/11) 8:56 PM EDT (4/11)
Length of Visible Light 14h 10m
Length of Day
13h 12m
New Moon, 2% of the Moon is Illuminated
Apr 11
New Moon
Apr 18
First Quarter
Apr 25
Full
May 2
Last Quarter
May 9
New

Hourly Weather History & Observations

Time (EDT) Temp. Windchill Dew Point Humidity Pressure Visibility Wind Dir Wind Speed Gust Speed Precip Events Conditions
12:08 AM 48.2 °F - 46.4 °F 93% 29.87 in 5.0 mi East 4.6 mph - 0.01 in Rain Light Rain
12:56 AM 48.0 °F - 46.9 °F 96% 29.92 in 6.0 mi Calm Calm - 0.02 in   Overcast
1:20 AM 46.4 °F 43.5 °F 46.4 °F 100% 29.86 in 2.0 mi NE 5.8 mph - 0.02 in Rain Light Rain
1:37 AM 46.4 °F 43.5 °F 46.4 °F 100% 29.86 in 2.5 mi NE 5.8 mph - 0.03 in Rain Light Rain
1:47 AM 46.4 °F 43.5 °F 46.4 °F 100% 29.85 in 3.0 mi NE 5.8 mph - 0.03 in Rain Light Rain
1:56 AM 46.9 °F - 46.0 °F 97% 29.89 in 3.0 mi NE 3.5 mph - 0.03 in Rain Light Rain
2:56 AM 46.0 °F 42.5 °F 45.0 °F 96% 29.86 in 9.0 mi NNE 6.9 mph - 0.01 in   Overcast
3:56 AM 46.0 °F 43.9 °F 45.0 °F 96% 29.88 in 10.0 mi North 4.6 mph - N/A   Overcast
4:56 AM 46.9 °F - 45.0 °F 93% 29.87 in 3.0 mi North 6.9 mph - N/A   Overcast
5:24 AM 46.4 °F 41.9 °F 44.6 °F 93% 29.84 in 6.0 mi North 9.2 mph - N/A   Overcast
5:56 AM 46.9 °F - 45.0 °F 93% 29.91 in 4.0 mi North 4.6 mph - N/A   Overcast
6:51 AM 46.4 °F 41.9 °F 44.6 °F 93% 29.92 in 2.0 mi North 9.2 mph - N/A   Overcast
6:56 AM 46.0 °F 41.4 °F 44.1 °F 93% 29.97 in 2.0 mi North 9.2 mph - N/A   Overcast
7:56 AM 46.0 °F 43.1 °F 44.1 °F 93% 29.99 in 2.0 mi North 5.8 mph - N/A   Overcast
8:03 AM 44.6 °F 40.7 °F 44.6 °F 100% 29.94 in 5.0 mi NNE 6.9 mph - N/A   Overcast
8:28 AM 44.6 °F 41.4 °F 44.6 °F 100% 29.95 in 2.5 mi NNE 5.8 mph - N/A   Overcast
8:41 AM 44.6 °F 40.7 °F 44.6 °F 100% 29.94 in 1.5 mi NNE 6.9 mph - 0.00 in Rain Light Rain
8:56 AM 45.0 °F 40.6 °F 43.0 °F 93% 29.98 in 1.0 mi North 8.1 mph - 0.01 in Rain Light Rain
9:05 AM 44.6 °F 39.7 °F 42.8 °F 93% 29.95 in 1.0 mi NNW 9.2 mph - 0.00 in Rain Light Rain
9:56 AM 45.0 °F 41.2 °F 42.1 °F 90% 30.03 in 1.0 mi North 6.9 mph - 0.00 in   Overcast
10:03 AM 44.6 °F 40.7 °F 42.8 °F 93% 29.99 in 7.0 mi North 6.9 mph - N/A   Overcast
10:10 AM 44.6 °F 40.7 °F 42.8 °F 93% 29.98 in 3.0 mi North 6.9 mph - N/A   Overcast
10:56 AM 44.1 °F 39.5 °F 41.0 °F 89% 30.04 in 3.0 mi North 8.1 mph - 0.00 in   Overcast
11:19 AM 46.4 °F 43.5 °F 37.4 °F 71% 30.00 in 10.0 mi North 5.8 mph - 0.00 in   Overcast
11:53 AM 46.4 °F 43.5 °F 41.0 °F 81% 30.03 in 10.0 mi WNW 5.8 mph - 0.00 in   Overcast
11:56 AM 46.0 °F 43.1 °F 41.0 °F 83% 30.07 in 10.0 mi WNW 5.8 mph - 0.00 in   Overcast
12:37 PM 48.2 °F - 41.0 °F 76% 30.02 in 10.0 mi NNW 4.6 mph - N/A   Overcast
12:56 PM 48.0 °F - 41.0 °F 77% 30.05 in 10.0 mi North 3.5 mph - N/A   Overcast
1:56 PM 50.0 °F - 39.9 °F 68% 30.05 in 10.0 mi East 4.6 mph - N/A   Overcast
2:03 PM 50.0 °F - 39.2 °F 66% 30.01 in 10.0 mi SSE 3.5 mph - N/A   Overcast
2:45 PM 53.6 °F - 37.4 °F 54% 30.01 in 10.0 mi North 4.6 mph - N/A   Mostly Cloudy
2:56 PM 52.0 °F - 36.0 °F 54% 30.05 in 10.0 mi North 8.1 mph - N/A   Mostly Cloudy
3:56 PM 50.0 °F - 30.9 °F 48% 30.05 in 10.0 mi NNW 11.5 mph - N/A   Overcast
4:56 PM 48.9 °F - 28.0 °F 44% 30.07 in 10.0 mi NNW 9.2 mph - N/A   Overcast
5:56 PM 48.0 °F - 24.1 °F 39% 30.09 in 10.0 mi North 9.2 mph - N/A   Overcast
6:56 PM 46.0 °F 41.4 °F 24.1 °F 42% 30.12 in 10.0 mi North 9.2 mph - N/A   Overcast
7:56 PM 44.1 °F 39.5 °F 24.1 °F 45% 30.14 in 10.0 mi NNW 8.1 mph - N/A   Overcast
8:56 PM 43.0 °F 39.5 °F 23.0 °F 45% 30.15 in 10.0 mi NNW 5.8 mph - N/A   Overcast
9:56 PM 42.1 °F 40.2 °F 25.0 °F 51% 30.17 in 10.0 mi North 3.5 mph - N/A   Overcast
10:56 PM 42.1 °F 39.2 °F 27.0 °F 55% 30.18 in 10.0 mi North 4.6 mph - N/A   Overcast
11:56 PM 41.0 °F 38.0 °F 28.9 °F 62% 30.18 in 10.0 mi North 4.6 mph - 0.00 in Rain Light Rain